Weather History for St. Stephen, NB

Change the Weather History Date:

Monday, January 14, 2013

  Actual Average Record
Temperature  
Mean Temperature 44 °F -  
Max Temperature 53 °F - - ()
Min Temperature 35 °F - - ()
Degree Days  
Heating Degree Days 21    
Moisture  
Dew Point 38 °F    
Average Humidity 83    
Maximum Humidity 99    
Minimum Humidity 44    
Precipitation  
Precipitation 0.00 in - - ()
Sea Level Pressure  
Sea Level Pressure 29.93 in    
Wind  
Wind Speed 3 mph ()    
Max Wind Speed 12 mph    
Max Gust Speed 17 mph    
T = Trace of Precipitation, MM = Missing Value Source: Averaged Metar Reports

Daily Weather History Graph

Daily Weather History Graph

Search for Another Location

Airport:

Trip Planner

Search our weather history database for the weather conditions in past years. The results will help you decide how hot, cold, wet, or windy it might be!

Date:

Astronomy

Jan. 14, 2013 Rise Set
Actual Time 8:04 AM AST 5:12 PM AST
Civil Twilight 7:31 AM AST 5:44 PM AST
Nautical Twilight 6:55 AM AST 6:21 PM AST
Astronomical Twilight 6:19 AM AST 6:56 PM AST
Moon 9:25 AM AST (1/14) 9:05 PM AST (1/14)
Length of Visible Light 10h 13m
Length of Day
9h 07m
Waxing Crescent, 11% of the Moon is Illuminated
Jan 14
Waxing Crescent
Jan 18
First Quarter
Jan 27
Full
Feb 3
Last Quarter
Feb 10
New

Hourly Weather History & Observations

Time (AST) Temp. Windchill Dew Point Humidity Pressure Visibility Wind Dir Wind Speed Gust Speed Precip Events Conditions
1:00 AM 43.0 °F 41.3 °F 42.4 °F 98% 29.94 in - SSE 3.5 mph - N/A   Unknown
2:00 AM 40 °F - 40 °F 98% 29.94 in - South 1.2 mph - -  
2:00 AM 40.1 °F - 39.6 °F 98% 29.94 in - South 1.2 mph - N/A   Unknown
3:00 AM 39.0 °F - 38.7 °F 99% 29.94 in - NE 1.2 mph - N/A   Unknown
4:00 AM 37.9 °F - 37.6 °F 99% 29.93 in - Calm Calm - N/A   Unknown
5:00 AM 37 °F - 37 °F 98% 29.90 in - Calm Calm - -  
5:00 AM 37.0 °F - 36.7 °F 99% 29.90 in - Calm Calm - N/A   Unknown
6:00 AM 38.5 °F - 38.1 °F 99% 29.87 in - SSE 2.3 mph - N/A   Unknown
7:00 AM 44.2 °F 42.7 °F 43.9 °F 99% 29.86 in - SSE 3.5 mph - N/A   Unknown
8:00 AM 42 °F - 42 °F 99% 29.84 in - ESE 3.5 mph - -  
8:00 AM 42.3 °F 40.5 °F 41.9 °F 99% 29.84 in - ESE 3.5 mph - N/A   Unknown
9:00 AM 45.1 °F 41.4 °F 44.8 °F 99% 29.83 in - South 6.9 mph - N/A   Unknown
10:00 AM 45.5 °F 42.5 °F 45.1 °F 99% 29.85 in - South 5.8 mph - N/A   Unknown
11:00 AM 46 °F - 46 °F 99% 29.84 in - SW 3.5 mph - -  
11:00 AM 46.2 °F 45.0 °F 45.9 °F 99% 29.84 in - SW 3.5 mph - N/A   Unknown
12:00 PM 47.1 °F - 46.8 °F 99% 29.83 in - WSW 4.6 mph - N/A   Unknown
1:00 PM 48.4 °F - 47.7 °F 97% 29.81 in - West 4.6 mph - N/A   Unknown
2:00 PM 51 °F - 48 °F 87% 29.83 in - WSW 5.8 mph - -  
2:00 PM 51.1 °F - 48.4 °F 90% 29.83 in - WSW 5.8 mph - N/A   Unknown
3:00 PM 51.8 °F - 46.2 °F 81% 29.88 in - West 8.1 mph - N/A   Unknown
5:00 PM 48 °F - 35 °F 48% 29.95 in - West 11.5 mph - -  
5:00 PM 48.2 °F - 34.5 °F 59% 29.95 in - West 11.5 mph 17.3 mph N/A   Unknown
6:00 PM 44.1 °F 42.5 °F 31.5 °F 61% 30.01 in - West 3.5 mph - N/A   Unknown
7:00 PM 42.3 °F 38.6 °F 27.5 °F 56% 30.06 in - WNW 5.8 mph - N/A   Unknown
8:00 PM 40 °F - 26 °F 44% 30.06 in - WNW 4.6 mph - -  
8:00 PM 39.9 °F 36.7 °F 25.5 °F 56% 30.06 in - WNW 4.6 mph - N/A   Unknown
9:00 PM 37.2 °F 32.6 °F 25.2 °F 62% 30.07 in - WNW 5.8 mph - N/A   Unknown
10:00 PM 36.7 °F 31.2 °F 25.3 °F 64% 30.13 in - WNW 6.9 mph - N/A   Unknown
11:00 PM 35 °F - 24 °F 53% 30.14 in - WNW 4.6 mph - -  
11:00 PM 35.2 °F 31.2 °F 24.3 °F 64% 30.14 in - WNW 4.6 mph - N/A   Unknown